Location: El Álamo
(40.2307°N, 3.9945°W)
Time: 03:52:10
(UTC+00:00)

Cosmos 44 - Pass Details

Date: 19 May 2025
Orbit: 588 x 763 km, 65.1° (Epoch: 23 June)

Event Time Altitude Azimuth Distance (km) Brightness Sun altitude
Rises 21:16:54 0° 334° (NNW) 2,913 7.9 -17.2°
Reaches altitude 10° 21:19:15 10° 342° (NNW) 2,028 6.7 -17.5°
Maximum altitude 21:23:36 40° 53° (NE) 966 4.0 -18.1°
Enters shadow 21:25:21 29° 99° (E) 1,221 4.1 -18.3°
